Time,TemperatureF,DewpointF,PressureIn,WindDirection,WindDirectionDegrees,WindSpeedMPH,WindSpeedGustMPH,Humidity,HourlyPrecipIn,Conditions,Clouds,dailyrainin,SoftwareType,DateUTC
2013-03-19 00:09:00,68.7,68.0,29.86,SSE,159,0.0,-999.0,98,-99.99,,,0.00,weatherlink.com 1.10,2013-03-19 05:09:00,
2013-03-19 00:25:00,68.7,68.0,29.87,SW,215,1.0,-999.0,98,-99.99,,,0.00,weatherlink.com 1.10,2013-03-19 05:25:00,
2013-03-19 00:55:00,68.4,68.0,29.88,SW,215,0.0,-999.0,98,-99.99,,,0.00,weatherlink.com 1.10,2013-03-19 05:55:00,
2013-03-19 01:10:00,68.2,68.0,29.88,West,259,0.0,-999.0,98,-99.99,,,0.00,weatherlink.com 1.10,2013-03-19 06:10:00,
2013-03-19 01:25:00,68.1,68.0,29.89,WNW,294,4.0,-999.0,98,-99.99,,,0.00,weatherlink.com 1.10,2013-03-19 06:25:00,
2013-03-19 01:40:00,68.1,68.0,29.91,NE,36,2.0,-999.0,98,-99.99,,,0.00,weatherlink.com 1.10,2013-03-19 06:40:00,
2013-03-19 01:56:00,65.2,64.0,29.91,North,5,0.0,-999.0,95,-99.99,,,0.01,weatherlink.com 1.10,2013-03-19 06:56:00,
2013-03-19 02:10:00,64.1,63.0,29.91,NNE,18,0.0,-999.0,96,-99.99,,,0.01,weatherlink.com 1.10,2013-03-19 07:10:00,
2013-03-19 02:25:00,63.5,62.0,29.91,North,5,0.0,-999.0,96,-99.99,,,0.01,weatherlink.com 1.10,2013-03-19 07:25:00,
2013-03-19 02:41:00,63.1,62.0,29.91,North,360,1.0,-999.0,96,-99.99,,,0.01,weatherlink.com 1.10,2013-03-19 07:41:00,
2013-03-19 02:55:00,62.7,62.0,29.91,ENE,57,0.0,-999.0,96,-99.99,,,0.01,weatherlink.com 1.10,2013-03-19 07:55:00,
2013-03-19 03:11:00,62.3,61.0,29.91,NNE,33,0.0,-999.0,96,-99.99,,,0.01,weatherlink.com 1.10,2013-03-19 08:11:00,
2013-03-19 03:25:00,62.1,61.0,29.92,North,355,0.0,-999.0,95,-99.99,,,0.01,weatherlink.com 1.10,2013-03-19 08:25:00,
2013-03-19 03:40:00,62.0,60.0,29.92,NNE,31,0.0,-999.0,94,-99.99,,,0.01,weatherlink.com 1.10,2013-03-19 08:40:00,
2013-03-19 03:56:00,61.9,60.0,29.93,North,355,5.0,-999.0,93,-99.99,,,0.01,weatherlink.com 1.10,2013-03-19 08:56:00,
2013-03-19 04:10:00,61.9,60.0,29.93,NE,38,4.0,-999.0,93,-99.99,,,0.01,weatherlink.com 1.10,2013-03-19 09:10:00,
2013-03-19 04:25:00,61.8,60.0,29.93,NNE,28,3.0,-999.0,93,-99.99,,,0.01,weatherlink.com 1.10,2013-03-19 09:25:00,
2013-03-19 05:12:00,61.0,58.0,29.94,North,5,2.0,-999.0,91,-99.99,,,0.01,weatherlink.com 1.10,2013-03-19 10:12:00,
2013-03-19 05:25:00,60.7,58.0,29.95,NNE,27,0.0,-999.0,92,-99.99,,,0.01,weatherlink.com 1.10,2013-03-19 10:25:00,
2013-03-19 05:41:00,60.5,58.0,29.95,ENE,65,1.0,-999.0,92,-99.99,,,0.01,weatherlink.com 1.10,2013-03-19 10:41:00,
2013-03-19 05:56:00,60.0,58.0,29.96,NNE,13,3.0,-999.0,92,-99.99,,,0.01,weatherlink.com 1.10,2013-03-19 10:56:00,
2013-03-19 06:11:00,59.5,57.0,29.97,NNE,33,2.0,-999.0,92,-99.99,,,0.01,weatherlink.com 1.10,2013-03-19 11:11:00,
2013-03-19 06:26:00,59.1,57.0,29.97,NNE,21,0.0,-999.0,92,-99.99,,,0.01,weatherlink.com 1.10,2013-03-19 11:26:00,
2013-03-19 06:56:00,58.3,56.0,29.99,NE,37,3.0,-999.0,90,-99.99,,,0.01,weatherlink.com 1.10,2013-03-19 11:56:00,
2013-03-19 07:11:00,58.0,55.0,30.00,NNE,15,0.0,-999.0,89,-99.99,,,0.01,weatherlink.com 1.10,2013-03-19 12:11:00,
2013-03-19 07:27:00,57.5,54.0,30.00,ENE,76,6.0,-999.0,89,-99.99,,,0.01,weatherlink.com 1.10,2013-03-19 12:27:00,
2013-03-19 07:41:00,57.2,54.0,30.01,NE,51,0.0,-999.0,89,-99.99,,,0.01,weatherlink.com 1.10,2013-03-19 12:41:00,
2013-03-19 07:58:00,56.9,53.0,30.01,ENE,72,5.0,-999.0,88,-99.99,,,0.01,weatherlink.com 1.10,2013-03-19 12:58:00,
2013-03-19 08:28:00,56.9,53.0,30.02,NE,42,0.0,-999.0,88,-99.99,,,0.01,weatherlink.com 1.10,2013-03-19 13:28:00,
2013-03-19 08:42:00,56.8,53.0,30.02,East,89,10.0,-999.0,88,-99.99,,,0.01,weatherlink.com 1.10,2013-03-19 13:42:00,
2013-03-19 08:57:00,56.7,52.0,30.02,NE,55,1.0,-999.0,85,-99.99,,,0.01,weatherlink.com 1.10,2013-03-19 13:57:00,
2013-03-19 09:12:00,56.8,52.0,30.02,NNE,26,1.0,-999.0,84,-99.99,,,0.01,weatherlink.com 1.10,2013-03-19 14:12:00,
2013-03-19 09:27:00,57.1,52.0,30.02,East,82,4.0,-999.0,84,-99.99,,,0.01,weatherlink.com 1.10,2013-03-19 14:27:00,
2013-03-19 09:42:00,57.8,53.0,30.01,East,80,0.0,-999.0,84,-99.99,,,0.01,weatherlink.com 1.10,2013-03-19 14:42:00,
2013-03-19 09:57:00,58.8,53.0,30.02,ENE,77,0.0,-999.0,80,-99.99,,,0.01,weatherlink.com 1.10,2013-03-19 14:57:00,
2013-03-19 10:12:00,59.8,54.0,30.02,East,92,0.0,-999.0,80,-99.99,,,0.01,weatherlink.com 1.10,2013-03-19 15:12:00,
2013-03-19 10:27:00,61.1,54.0,30.02,East,87,4.0,-999.0,77,-99.99,,,0.01,weatherlink.com 1.10,2013-03-19 15:27:00,
2013-03-19 10:42:00,62.7,54.0,30.02,ESE,123,1.0,-999.0,74,-99.99,,,0.01,weatherlink.com 1.10,2013-03-19 15:42:00,
2013-03-19 10:56:00,64.2,55.0,30.03,ESE,122,0.0,-999.0,72,-99.99,,,0.01,weatherlink.com 1.10,2013-03-19 15:56:00,
2013-03-19 11:12:00,65.8,56.0,30.02,ESE,111,2.0,-999.0,70,-99.99,,,0.01,weatherlink.com 1.10,2013-03-19 16:12:00,
2013-03-19 11:27:00,67.4,55.0,30.02,East,85,2.0,-999.0,64,-99.99,,,0.01,weatherlink.com 1.10,2013-03-19 16:27:00,
2013-03-19 11:42:00,68.5,55.0,30.02,SE,137,1.0,-999.0,63,-99.99,,,0.01,weatherlink.com 1.10,2013-03-19 16:42:00,
2013-03-19 11:56:00,69.5,54.0,30.02,East,87,0.0,-999.0,58,-99.99,,,0.01,weatherlink.com 1.10,2013-03-19 16:56:00,
2013-03-19 12:12:00,70.7,55.0,30.02,East,90,6.0,-999.0,57,-99.99,,,0.01,weatherlink.com 1.10,2013-03-19 17:12:00,
2013-03-19 12:27:00,72.2,55.0,30.01,East,81,2.0,-999.0,55,-99.99,,,0.01,weatherlink.com 1.10,2013-03-19 17:27:00,
2013-03-19 12:42:00,73.7,57.0,30.00,SSE,158,8.0,-999.0,57,-99.99,,,0.01,weatherlink.com 1.10,2013-03-19 17:42:00,
2013-03-19 12:58:00,75.2,58.0,30.00,SE,144,2.0,-999.0,56,-99.99,,,0.01,weatherlink.com 1.10,2013-03-19 17:58:00,
2013-03-19 13:15:00,75.6,59.0,30.00,South,173,5.0,-999.0,57,-99.99,,,0.01,weatherlink.com 1.10,2013-03-19 18:15:00,
2013-03-19 13:28:00,75.1,59.0,29.99,SSE,159,2.0,-999.0,57,-99.99,,,0.01,weatherlink.com 1.10,2013-03-19 18:28:00,
2013-03-19 13:43:00,74.5,60.0,29.99,SSE,153,5.0,-999.0,60,-99.99,,,0.01,weatherlink.com 1.10,2013-03-19 18:43:00,
2013-03-19 13:59:00,74.1,59.0,29.99,SE,138,9.0,-999.0,60,-99.99,,,0.01,weatherlink.com 1.10,2013-03-19 18:59:00,
2013-03-19 14:13:00,73.5,59.0,29.99,SE,134,5.0,-999.0,61,-99.99,,,0.01,weatherlink.com 1.10,2013-03-19 19:13:00,
2013-03-19 14:28:00,74.3,59.0,29.99,South,183,2.0,-999.0,60,-99.99,,,0.01,weatherlink.com 1.10,2013-03-19 19:28:00,
2013-03-19 14:43:00,73.7,58.0,29.98,SSE,153,5.0,-999.0,58,-99.99,,,0.01,weatherlink.com 1.10,2013-03-19 19:43:00,
2013-03-19 14:58:00,72.9,59.0,29.98,SE,128,1.0,-999.0,61,-99.99,,,0.01,weatherlink.com 1.10,2013-03-19 19:58:00,
2013-03-19 15:12:00,73.5,60.0,29.96,South,172,6.0,-999.0,62,-99.99,,,0.01,weatherlink.com 1.10,2013-03-19 20:12:00,
2013-03-19 15:27:00,75.1,58.0,29.96,SSE,155,1.0,-999.0,56,-99.99,,,0.01,weatherlink.com 1.10,2013-03-19 20:27:00,
2013-03-19 15:42:00,76.6,59.0,29.95,SE,135,5.0,-999.0,55,-99.99,,,0.01,weatherlink.com 1.10,2013-03-19 20:42:00,
2013-03-19 15:57:00,78.9,60.0,29.95,SE,137,8.0,-999.0,52,-99.99,,,0.01,weatherlink.com 1.10,2013-03-19 20:57:00,
2013-03-19 16:12:00,79.2,60.0,29.95,SSE,159,8.0,-999.0,52,-99.99,,,0.01,weatherlink.com 1.10,2013-03-19 21:12:00,
2013-03-19 16:27:00,77.6,61.0,29.95,SSE,159,9.0,-999.0,56,-99.99,,,0.01,weatherlink.com 1.10,2013-03-19 21:27:00,
2013-03-19 16:42:00,76.1,60.0,29.95,SSE,156,7.0,-999.0,58,-99.99,,,0.01,weatherlink.com 1.10,2013-03-19 21:42:00,
2013-03-19 16:57:00,75.6,61.0,29.95,SSE,151,10.0,-999.0,60,-99.99,,,0.01,weatherlink.com 1.10,2013-03-19 21:57:00,
2013-03-19 17:12:00,74.8,62.0,29.94,SSE,153,4.0,-999.0,64,-99.99,,,0.01,weatherlink.com 1.10,2013-03-19 22:12:00,
2013-03-19 17:27:00,74.2,62.0,29.94,SE,146,0.0,-999.0,65,-99.99,,,0.01,weatherlink.com 1.10,2013-03-19 22:27:00,
2013-03-19 17:43:00,73.2,62.0,29.93,SSE,166,6.0,-999.0,67,-99.99,,,0.01,weatherlink.com 1.10,2013-03-19 22:43:00,
2013-03-19 17:58:00,72.3,62.0,29.93,SSE,167,0.0,-999.0,70,-99.99,,,0.01,weatherlink.com 1.10,2013-03-19 22:58:00,
2013-03-19 18:13:00,71.2,61.0,29.94,SE,134,5.0,-999.0,71,-99.99,,,0.01,weatherlink.com 1.10,2013-03-19 23:13:00,
2013-03-19 18:28:00,70.0,61.0,29.95,South,171,6.0,-999.0,74,-99.99,,,0.01,weatherlink.com 1.10,2013-03-19 23:28:00,
2013-03-19 18:43:00,69.0,61.0,29.96,South,169,5.0,-999.0,76,-99.99,,,0.01,weatherlink.com 1.10,2013-03-19 23:43:00,
2013-03-19 18:58:00,68.5,61.0,29.96,South,184,0.0,-999.0,78,-99.99,,,0.01,weatherlink.com 1.10,2013-03-19 23:58:00,
2013-03-19 19:13:00,67.8,61.0,29.96,SSE,161,2.0,-999.0,79,-99.99,,,0.01,weatherlink.com 1.10,2013-03-20 00:13:00,
2013-03-19 19:28:00,66.9,61.0,29.96,South,171,1.0,-999.0,81,-99.99,,,0.01,weatherlink.com 1.10,2013-03-20 00:28:00,
2013-03-19 19:43:00,65.8,61.0,29.97,South,171,0.0,-999.0,83,-99.99,,,0.01,weatherlink.com 1.10,2013-03-20 00:43:00,
2013-03-19 19:58:00,64.9,60.0,29.97,South,171,0.0,-999.0,85,-99.99,,,0.01,weatherlink.com 1.10,2013-03-20 00:58:00,
2013-03-19 20:13:00,64.3,60.0,29.96,South,171,0.0,-999.0,87,-99.99,,,0.01,weatherlink.com 1.10,2013-03-20 01:13:00,
2013-03-19 20:28:00,63.5,60.0,29.97,South,171,0.0,-999.0,88,-99.99,,,0.01,weatherlink.com 1.10,2013-03-20 01:28:00,
2013-03-19 20:43:00,63.0,60.0,29.98,South,171,0.0,-999.0,89,-99.99,,,0.01,weatherlink.com 1.10,2013-03-20 01:43:00,
2013-03-19 20:58:00,62.4,60.0,29.98,South,171,0.0,-999.0,90,-99.99,,,0.01,weatherlink.com 1.10,2013-03-20 01:58:00,
2013-03-19 21:13:00,61.9,59.0,29.98,South,171,0.0,-999.0,91,-99.99,,,0.01,weatherlink.com 1.10,2013-03-20 02:13:00,
2013-03-19 21:28:00,61.4,59.0,29.99,South,171,0.0,-999.0,92,-99.99,,,0.01,weatherlink.com 1.10,2013-03-20 02:28:00,
2013-03-19 21:43:00,60.9,59.0,29.99,South,171,0.0,-999.0,93,-99.99,,,0.01,weatherlink.com 1.10,2013-03-20 02:43:00,
2013-03-19 21:58:00,60.4,59.0,30.00,South,171,0.0,-999.0,94,-99.99,,,0.01,weatherlink.com 1.10,2013-03-20 02:58:00,
2013-03-19 22:13:00,60.0,58.0,30.00,South,171,0.0,-999.0,94,-99.99,,,0.01,weatherlink.com 1.10,2013-03-20 03:13:00,
2013-03-19 22:27:00,59.8,59.0,30.01,South,171,0.0,-999.0,96,-99.99,,,0.01,weatherlink.com 1.10,2013-03-20 03:27:00,
2013-03-19 22:43:00,59.8,59.0,30.00,SSE,165,0.0,-999.0,96,-99.99,,,0.01,weatherlink.com 1.10,2013-03-20 03:43:00,
2013-03-19 22:58:00,59.4,58.0,30.00,SSE,165,0.0,-999.0,95,-99.99,,,0.01,weatherlink.com 1.10,2013-03-20 03:58:00,
2013-03-19 23:13:00,59.0,58.0,30.00,NE,51,1.0,-999.0,95,-99.99,,,0.01,weatherlink.com 1.10,2013-03-20 04:13:00,
2013-03-19 23:28:00,58.1,55.0,30.00,NNE,30,0.0,-999.0,90,-99.99,,,0.01,weatherlink.com 1.10,2013-03-20 04:28:00,
2013-03-19 23:43:00,57.5,53.0,30.00,NE,38,1.0,-999.0,84,-99.99,,,0.01,weatherlink.com 1.10,2013-03-20 04:43:00,
2013-03-19 23:58:00,57.8,50.0,29.99,ENE,69,0.0,-999.0,76,-99.99,,,0.01,weatherlink.com 1.10,2013-03-20 04:58:00,